map of MLX home
MLX - Airport
Location
City:  Malatya, Malatya, Turkey
Name:Erhac
ICAO:LTAT
IATA:MLX

Details
Type:Airport (Aerodrome, Airfield)
Use:Public/Civil, Military
Latitude:3826'07"N (38.435347)
Longitude:3805'28"E (38.091006)
Datum:WGS 1984
Elevation:2828 ft (862 m)
Variation:5.75E (WMM2015 magnetic declination)
0.08 annual change
Runways:1
Longest:10990 × 148 ft (3350 × 45 m), paved

Time
Time Zone:UTC+3
Local Time:

Weather
METAR:LTAT 191950Z 26004KT 200V320 9999 SCT040 BKN100 24/10 Q1011 TEMPO TL2100 -TSRA RMK RWY03 VRB01KT
TAF:LTAT 191040Z 1912/2012 05006KT 9999 SCT040 PROB30
TEMPO 1915/1919 24016KT -TSRA FEW030CB BKN035
BECMG 1920/1922 CAVOK
BECMG 2004/2006 SCT040 PROB30
TEMPO 2009/2012 21016G26KT -TSRA FEW027CB BKN035

Related Locations
Nearby:
Farthest:RVV: 11373 mi / 18303 km
Raivavae, Tubuai Islands, Austral Islands, PF

Find:

   beyond  
but within

Other Information
Maps:
NOTAMs:
Links:
Sources:

  
  • flag of Turkey
  

Sectional Chart

Flight Planning
at skyvector.com

Satellite Image

Google Maps Satellite view

 

Copyright © 2004-2018 Karl L. Swartz. All rights reserved.
The Great Circle Mapper name and logo are trademarks of the Great Circle Mapper.
All other trademarks mentioned herein belong to their respective owners.
Please see credits for attibutions and further copyright information.

  Follow gcmap on Facebook Follow gcmap on Twitter Follow gcmap on Google+ GCmap on LinkedIn

hCard Microformat

Geo Microformat